Regional Weather Roundup
Issued by NWS

Home | Current Version | Previous Version | Graphics & Text | Print | Product List | Glossary Off
Versions: 1 2 3 4 5 6 7 8 9 10 11 12 13 14 15 16 17 18 19 20 21 22 23 24 25 26 27 28 29 30 31 32 33 34 35 36 37 38 39 40 41 42 43 44 45 46 47 48 49 50

000
ASUS43 KDTX 050201
RWRMI
MICHIGAN HOURLY REGIONAL WEATHER ROUNDUP
NATIONAL WEATHER SERVICE DETROIT/PONTIAC MI
1000 PM EDT SAT JUL 04 2015

NOTE: "FAIR" INDICATES FEW OR NO CLOUDS BELOW 12,000 FEET WITH NO
SIGNIFICANT WEATHER AND/OR OBSTRUCTION TO VISIBILITY.

MIZ047>049-052>055-059>063-066>070-074>076-081>083-050300-
SOUTHEAST LOWER MICHIGAN

CITY           SKY/WX    TMP DP  RH WIND       PRES   REMARKS
ADRIAN         CLEAR     68  60  75 CALM      30.02R
ALMA           PTCLDY    71  61  70 W5        30.01R
ANN ARBOR      CLEAR     61  58  90 CALM      30.01R
BAD AXE        MOCLDY    67  57  70 CALM      29.99R
CARO           CLEAR     63  60  88 CALM      29.98S
DETROIT CITY   CLEAR     70  55  59 S6        30.00R
DETROIT        MOCLDY    71  59  65 S5        30.01R
FLINT          CLEAR     69  59  70 S6        30.00S
GROSSE ILE     CLEAR     66  63  88 SE5       30.00R
HILLSDALE      CLEAR     66  61  86 CALM      30.04R
HOWELL         CLEAR     68  57  67 CALM      30.01R

CITY           SKY/WX    TMP DP  RH WIND       PRES   REMARKS
JACKSON        CLEAR     68  60  75 CALM      30.02R
LAMBERTVILLE   CLEAR     67  60  77 CALM      30.02R
LANSING        CLEAR     70  59  68 CALM      30.01R
LAPEER         FAIR      62  58  84 CALM      30.01R
MASON          CLEAR     64  58  82 S3        30.01R
MONROE         CLEAR     66  61  83 CALM      30.01R
MT. CLEMENS    CLEAR     68  54  60 S2        29.99R
PONTIAC        CLOUDY    67  58  72 VRB6      30.01R
PORT HOPE        N/A     66  59  78 SE8       29.98R
PORT HURON     CLEAR     61  57  88 CALM      30.01R
TRI CITIES     MOCLDY    75  59  57 S5        29.99R
MIDLAND        MOCLDY    74  61  62 CALM      29.97R
TROY           CLEAR     73  53  49 CALM      30.02R
SAGINAW HB     CLEAR     72  55  56 SW5       29.98R
$$
MIZ043>046-050>051-056>058-064>065-071>073-077>080-050300-
SOUTHWEST LOWER MICHIGAN

CITY           SKY/WX    TMP DP  RH WIND       PRES   REMARKS
BATTLE CREEK   CLEAR     69  60  73 W3        30.02R
BENTON HARBOR  CLEAR     63  57  81 CALM      30.00S
BIG RAPIDS     CLEAR     69  59  70 CALM      30.01R
COLDWATER      CLEAR     64  60  87 CALM      30.02R
FREMONT        FAIR      65  58  78 CALM      30.01R
HOLLAND        CLEAR     66  59  78 CALM      30.01S
GRAND RAPIDS   MOCLDY    69  59  70 W5        30.01R
IONIA          FAIR      71  60  67 W6        30.00R
KALAMAZOO      CLEAR     71  57  61 N5        30.02R
LUDINGTON      CLEAR     63  58  83 W3        30.01S
MARSHALL       CLEAR     65  59  80 CALM      30.01R
MOUNT PLEASANT PTCLDY    73  62  67 SW7       29.99R
MUSKEGON       MOCLDY    64  58  80 CALM      30.01R
SOUTH HAVEN    CLEAR     63  58  83 CALM      30.01R
$$
MIZ016>042-050300-
NORTHERN LOWER MICHIGAN

CITY           SKY/WX    TMP DP  RH WIND       PRES   REMARKS
ALPENA         LGT RAIN  63  57  81 CALM      30.01R
BEAVER ISLAND  PTCLDY    59  57  91 CALM      30.01R
BELLAIRE       CLEAR     62  58  86 CALM      30.00R
CADILLAC       PTCLDY    65  58  79 CALM      30.02R
CHARLEVOIX     PTCLDY    63  57  81 CALM      30.03R
FRANKFORT      PTCLDY    63  56  78 CALM      30.01R HAZE
GAYLORD        CLEAR     64  58  80 CALM      30.02R
GRAYLING       PTCLDY    62  57  86 CALM      30.02R
HARBOR SPRINGS PTCLDY    61  60  96 CALM      30.00S
HOUGHTON LAKE  PTCLDY    69  56  62 N5        30.01R
MANISTEE       PTCLDY   N/A N/A N/A CALM      30.01S VSB 1
OSCODA         CLEAR     62  55  80 NE5       29.99S HAZE
PELLSTON       PTCLDY    62  58  86 CALM      30.01R
ROGERS CITY    CLEAR     60  57  88 CALM      30.01R
TRAVERSE CITY  MOCLDY    65  59  81 CALM      29.99R
$$
MIZ007>008-015-050300-
EASTERN UPPER MICHIGAN

CITY           SKY/WX    TMP DP  RH WIND       PRES   REMARKS
KINROSS        CLEAR     57  54  88 CALM      30.01S
MACKINAC ISLAN CLEAR     60  59  95 N6        30.01R
NEWBERRY       PTCLDY    58  55  89 N3        30.01R
S. S. MARIE    CLEAR     57  53  86 W5        30.00R
$$
MIZ004>006-011>014-085-050300-
CENTRAL UPPER MICHIGAN

CITY           SKY/WX    TMP DP  RH WIND       PRES   REMARKS
MANISTIQUE     PTCLDY    58  56  91 CALM      29.99R
ESCANABA       PTCLDY    63  59  88 CALM      29.98R
MENOMINEE      PTCLDY    66  57  72 S6        29.97S
SAWYER-GWINN   CLEAR     61  54  77 CALM      30.00S
$$
MIZ001>003-009>011-084-050300-
WESTERN UPPER MICHIGAN

CITY           SKY/WX    TMP DP  RH WIND       PRES   REMARKS
IRON MOUNTAIN  MOCLDY    69  61  75 SE5       29.97R HAZE
HOUGHTON       PTCLDY    57  51  80 E9        29.96F
COPPER HARBOR    N/A     58  52  80 SW9       29.95F
IRONWOOD       MOCLDY    72  64  78 E6        29.89F
$$

ABBREVIATIONS USED IN REMARKS
   TC - TEMPERATURE IN CELSIUS
  WCI - WIND CHILL INDEX
   HX - HEAT INDEX
  VSB - VISIBILITY



USA.gov is the U.S. government's official web portal to all federal, state and local government web resources and services.